sat.trackr.live / text

‹ back to catalog

PERSEUS-M1

NORAD 40039 · 2014-033AF

PAYLOAD ACTIVE UNKNOWN

§ Identity

Operator
Country
CIS
Launch date
2014-06-19
Launch site
DLS
Launch vehicle
Mass (kg)
RCS (m²)
0.13

Purposes: tech_demo

External: N2YO · Heavens-Above · Gunter

§ Orbital elements

Epoch: 2026-09-09T19:04:55.526304Z

Period
96.27 min
Inclination
97.9702°
Eccentricity
0.0012038
Mean motion
14.95860883 rev/d
Perigee alt
571.3 km
Apogee alt
588.1 km
Semi-major
6,957.8 km
B*
1.4678e-4
RAAN
198.3516°
Arg perigee
23.8897°
Mean anomaly
336.2880°
Rev number
66,328

§ Raw data

PERSEUS-M11 40039U 14033AF  26252.79508711  .00001581  00000+0  14678-3 0  99952 40039  97.9702 198.3516 0012038  23.8897 336.2880 14.95860883663283

JSON: /api/v1/satellites/40039 · /tle

For live sub-satellite position, see the globe view (requires WebGL).

§ Visibility from observer

Set your observer location to see the next 7 days of passes ≥ 10°. The values pass through the URL so the page stays shareable.

No JS? Fill the form by hand. The geolocation button needs JavaScript.

§ Radio — SatNOGS DB

ModeDescriptionDownlinkUplink
GFSK GFSK 400.170 MHz

1 transmitter · refreshed weekly from db.satnogs.org